^^
Station Historical Data
Daily Summary for April 16, 2019 Units:  English    Metric   Both
« Previous Day
Next Day »
Daily Weekly Monthly Yearly Custom
  High: Low: Average:
Temperature: 63.8 °F 35.2 °F 49 °F
Dew Point: 41.2 °F 24.9 °F 30.4 °F
Humidity: 89% 24% 52%
Wind Speed: 17.0mph 0.0mph 4.2mph
Wind Gust: 26.0mph - -
Wind- - SSE
Pressure: 29.84 in 29.71 in -
Precipitation: 0.13 in    
Historical Graphs
 
 
Tabular Data for April 16, 2019
Time Temperature Dew Point Pressure Wind Wind Speed Wind Gust Humidity Rainfall Rate (Hourly) solar Conditions
00:04 44.9 °F 26.4 °F 29.71 in North 1.0 mph 2.0 mph 48% 0.00 in 0.00 W/m2
00:09 44.8 °F 26.3 °F 29.71 in North 3.0 mph 3.0 mph 48% 0.00 in 0.00 W/m2
00:14 44.5 °F 26.0 °F 29.71 in North 3.0 mph 3.0 mph 48% 0.00 in 0.00 W/m2
00:19 44.1 °F 26.1 °F 29.71 in North 2.0 mph 3.0 mph 49% 0.00 in 0.00 W/m2
00:24 43.7 °F 26.3 °F 29.71 in North 1.0 mph 3.0 mph 50% 0.00 in 0.00 W/m2
00:29 43.4 °F 26.0 °F 29.72 in North 2.0 mph 2.0 mph 50% 0.00 in 0.00 W/m2
00:34 43.4 °F 26.5 °F 29.72 in North 2.0 mph 3.0 mph 51% 0.00 in 0.00 W/m2
00:39 43.3 °F 26.4 °F 29.72 in North 2.0 mph 3.0 mph 51% 0.00 in 0.00 W/m2
00:44 43.1 °F 26.2 °F 29.72 in North 1.0 mph 2.0 mph 51% 0.00 in 0.00 W/m2
00:49 42.8 °F 25.9 °F 29.72 in North 2.0 mph 2.0 mph 51% 0.00 in 0.00 W/m2
00:54 42.5 °F 26.1 °F 29.72 in North 1.0 mph 2.0 mph 52% 0.00 in 0.00 W/m2
00:59 42.3 °F 25.9 °F 29.72 in North 1.0 mph 2.0 mph 52% 0.00 in 0.00 W/m2
01:04 42.1 °F 26.2 °F 29.73 in West 2.0 mph 4.0 mph 53% 0.00 in 0.00 W/m2
01:09 41.9 °F 26.0 °F 29.73 in West 3.0 mph 4.0 mph 53% 0.00 in 0.00 W/m2
01:14 41.7 °F 25.8 °F 29.73 in West 2.0 mph 4.0 mph 53% 0.00 in 0.00 W/m2
01:19 41.5 °F 26.1 °F 29.73 in West 2.0 mph 3.0 mph 54% 0.00 in 0.00 W/m2
01:24 41.5 °F 26.1 °F 29.73 in West 2.0 mph 3.0 mph 54% 0.00 in 0.00 W/m2
01:29 41.6 °F 26.2 °F 29.73 in West 3.0 mph 3.0 mph 54% 0.00 in 0.00 W/m2
01:34 41.8 °F 26.4 °F 29.73 in West 2.0 mph 3.0 mph 54% 0.00 in 0.00 W/m2
01:39 42.0 °F 26.5 °F 29.73 in West 3.0 mph 3.0 mph 54% 0.00 in 0.00 W/m2
01:44 42.1 °F 26.2 °F 29.73 in West 3.0 mph 4.0 mph 53% 0.00 in 0.00 W/m2
01:49 41.9 °F 26.4 °F 29.73 in West 2.0 mph 4.0 mph 54% 0.00 in 0.00 W/m2
01:54 41.7 °F 26.3 °F 29.73 in West 2.0 mph 4.0 mph 54% 0.00 in 0.00 W/m2
01:59 41.6 °F 26.2 °F 29.73 in West 1.0 mph 3.0 mph 54% 0.00 in 0.00 W/m2
02:04 41.4 °F 26.0 °F 29.74 in West 2.0 mph 3.0 mph 54% 0.00 in 0.00 W/m2
02:09 41.0 °F 26.1 °F 29.73 in Calm   2.0 mph 55% 0.00 in 0.00 W/m2
02:14 40.2 °F 25.7 °F 29.73 in West 1.0 mph 2.0 mph 56% 0.00 in 0.00 W/m2
02:19 39.3 °F 25.7 °F 29.73 in West 2.0 mph 3.0 mph 58% 0.00 in 0.00 W/m2
02:24 38.5 °F 25.4 °F 29.73 in SE 2.0 mph 3.0 mph 59% 0.00 in 0.00 W/m2
02:29 38.1 °F 25.4 °F 29.73 in SE 1.0 mph 3.0 mph 60% 0.00 in 0.00 W/m2
02:34 38.1 °F 25.8 °F 29.74 in SE 2.0 mph 3.0 mph 61% 0.00 in 0.00 W/m2
02:39 38.1 °F 25.8 °F 29.74 in Calm   3.0 mph 61% 0.00 in 0.00 W/m2
02:44 38.2 °F 25.9 °F 29.74 in SE 2.0 mph 3.0 mph 61% 0.00 in 0.00 W/m2
02:49 38.2 °F 25.9 °F 29.75 in SSE 3.0 mph 4.0 mph 61% 0.00 in 0.00 W/m2
02:54 38.2 °F 25.9 °F 29.75 in SW 3.0 mph 4.0 mph 61% 0.00 in 0.00 W/m2
02:59 38.3 °F 26.0 °F 29.74 in WSW 2.0 mph 4.0 mph 61% 0.00 in 0.00 W/m2
03:04 38.5 °F 26.2 °F 29.75 in WSW 2.0 mph 3.0 mph 61% 0.00 in 0.00 W/m2
03:09 38.8 °F 26.1 °F 29.75 in WSW 2.0 mph 3.0 mph 60% 0.00 in 0.00 W/m2
03:14 39.2 °F 26.5 °F 29.75 in WSW 2.0 mph 4.0 mph 60% 0.00 in 0.00 W/m2
03:19 39.4 °F 26.2 °F 29.75 in WSW 2.0 mph 4.0 mph 59% 0.00 in 0.00 W/m2
03:24 39.6 °F 26.4 °F 29.75 in WSW 2.0 mph 3.0 mph 59% 0.00 in 0.00 W/m2
03:29 39.6 °F 26.4 °F 29.75 in WSW 2.0 mph 3.0 mph 59% 0.00 in 0.00 W/m2
03:34 39.6 °F 26.4 °F 29.75 in SW 3.0 mph 4.0 mph 59% 0.00 in 0.00 W/m2
03:39 39.3 °F 25.7 °F 29.75 in SW 3.0 mph 4.0 mph 58% 0.00 in 0.00 W/m2
03:44 38.0 °F 25.3 °F 29.75 in SW 3.0 mph 4.0 mph 60% 0.00 in 0.00 W/m2
03:49 36.7 °F 24.9 °F 29.75 in SE 3.0 mph 5.0 mph 62% 0.00 in 0.00 W/m2
03:54 35.8 °F 25.2 °F 29.75 in SE 4.0 mph 5.0 mph 65% 0.00 in 0.00 W/m2
03:59 35.6 °F 25.4 °F 29.75 in SE 3.0 mph 4.0 mph 66% 0.00 in 0.00 W/m2
04:04 35.4 °F 25.2 °F 29.75 in SE 3.0 mph 4.0 mph 66% 0.00 in 0.00 W/m2
04:09 35.2 °F 25.3 °F 29.75 in SE 2.0 mph 4.0 mph 67% 0.00 in 0.00 W/m2
04:14 35.3 °F 25.4 °F 29.75 in SE 2.0 mph 3.0 mph 67% 0.00 in 0.00 W/m2
04:19 35.4 °F 25.5 °F 29.75 in SE 4.0 mph 5.0 mph 67% 0.00 in 0.00 W/m2
04:24 35.5 °F 25.6 °F 29.76 in SE 2.0 mph 5.0 mph 67% 0.00 in 0.00 W/m2
04:29 35.7 °F 25.8 °F 29.76 in SE 3.0 mph 4.0 mph 67% 0.00 in 0.00 W/m2
04:34 36.0 °F 26.1 °F 29.76 in SSE 4.0 mph 4.0 mph 67% 0.00 in 0.00 W/m2
04:39 36.3 °F 26.0 °F 29.76 in SSE 4.0 mph 4.0 mph 66% 0.00 in 0.00 W/m2
04:44 36.5 °F 25.8 °F 29.76 in South 3.0 mph 4.0 mph 65% 0.00 in 0.00 W/m2
04:49 36.6 °F 25.9 °F 29.76 in South 1.0 mph 4.0 mph 65% 0.00 in 0.00 W/m2
04:54 36.5 °F 25.8 °F 29.76 in South 1.0 mph 4.0 mph 65% 0.00 in 0.00 W/m2
04:59 36.5 °F 25.8 °F 29.76 in South 2.0 mph 3.0 mph 65% 0.00 in 0.00 W/m2
05:04 36.5 °F 25.8 °F 29.76 in South 4.0 mph 4.0 mph 65% 0.00 in 0.00 W/m2
05:09 36.6 °F 25.9 °F 29.76 in South 4.0 mph 4.0 mph 65% 0.00 in 0.00 W/m2
05:14 36.8 °F 26.1 °F 29.76 in South 3.0 mph 4.0 mph 65% 0.00 in 0.00 W/m2
05:19 37.0 °F 26.3 °F 29.76 in South 3.0 mph 4.0 mph 65% 0.00 in 0.00 W/m2
05:24 37.0 °F 25.9 °F 29.76 in South 2.0 mph 4.0 mph 64% 0.00 in 0.00 W/m2
05:29 37.0 °F 25.9 °F 29.76 in South 1.0 mph 3.0 mph 64% 0.00 in 0.00 W/m2
05:34 36.9 °F 25.9 °F 29.76 in South 2.0 mph 3.0 mph 64% 0.00 in 0.00 W/m2
05:39 37.1 °F 26.0 °F 29.76 in South 2.0 mph 3.0 mph 64% 0.00 in 0.00 W/m2
05:44 37.3 °F 26.2 °F 29.77 in South 1.0 mph 3.0 mph 64% 0.00 in 0.00 W/m2
05:49 37.3 °F 26.2 °F 29.77 in South 1.0 mph 3.0 mph 64% 0.00 in 0.00 W/m2
05:54 37.3 °F 26.2 °F 29.77 in South 3.0 mph 3.0 mph 64% 0.00 in 0.00 W/m2
05:59 37.4 °F 26.3 °F 29.77 in South 1.0 mph 3.0 mph 64% 0.00 in 0.00 W/m2
06:04 37.4 °F 25.9 °F 29.77 in South 1.0 mph 3.0 mph 63% 0.00 in 0.00 W/m2
06:09 37.3 °F 25.8 °F 29.77 in South 1.0 mph 2.0 mph 63% 0.00 in 0.00 W/m2
06:14 37.0 °F 25.6 °F 29.77 in South 2.0 mph 2.0 mph 63% 0.00 in 0.00 W/m2
06:19 36.8 °F 25.8 °F 29.77 in South 2.0 mph 3.0 mph 64% 0.00 in 0.00 W/m2
06:24 36.8 °F 25.8 °F 29.77 in South 3.0 mph 3.0 mph 64% 0.00 in 0.00 W/m2
06:29 36.6 °F 25.9 °F 29.77 in South 1.0 mph 3.0 mph 65% 0.00 in 0.00 W/m2
06:34 36.5 °F 25.8 °F 29.77 in South 1.0 mph 2.0 mph 65% 0.00 in 0.00 W/m2
06:39 36.4 °F 25.7 °F 29.77 in Calm   2.0 mph 65% 0.00 in 0.00 W/m2
06:44 36.3 °F 25.7 °F 29.77 in Calm   1.0 mph 65% 0.00 in 0.00 W/m2
06:49 36.2 °F 25.9 °F 29.77 in Calm   1.0 mph 66% 0.00 in 5.00 W/m2
06:54 36.1 °F 25.8 °F 29.77 in South 1.0 mph 2.0 mph 66% 0.00 in 5.00 W/m2
06:59 36.1 °F 25.8 °F 29.77 in Calm   2.0 mph 66% 0.00 in 9.00 W/m2
07:04 36.0 °F 25.7 °F 29.77 in Calm   2.0 mph 66% 0.00 in 9.00 W/m2
07:09 35.9 °F 25.6 °F 29.77 in Calm   2.0 mph 66% 0.00 in 12.00 W/m2
07:14 36.0 °F 25.7 °F 29.78 in South 1.0 mph 1.0 mph 66% 0.00 in 14.00 W/m2
07:19 36.0 °F 25.7 °F 29.78 in South 1.0 mph 1.0 mph 66% 0.00 in 16.00 W/m2
07:24 35.8 °F 25.5 °F 29.78 in Calm   1.0 mph 66% 0.00 in 18.00 W/m2
07:29 35.7 °F 25.8 °F 29.78 in Calm   1.0 mph 67% 0.00 in 19.00 W/m2
07:34 35.6 °F 25.7 °F 29.78 in Calm   1.0 mph 67% 0.00 in 25.00 W/m2
07:39 35.6 °F 25.7 °F 29.78 in Calm     67% 0.00 in 26.00 W/m2
07:44 35.7 °F 26.2 °F 29.78 in South 1.0 mph 3.0 mph 68% 0.00 in 26.00 W/m2
07:49 36.0 °F 26.5 °F 29.78 in South 2.0 mph 3.0 mph 68% 0.00 in 28.00 W/m2
07:54 36.1 °F 27.3 °F 29.78 in SE 5.0 mph 5.0 mph 70% 0.00 in 30.00 W/m2
07:59 35.7 °F 27.2 °F 29.78 in SE 4.0 mph 5.0 mph 71% 0.00 in 37.00 W/m2
08:04 35.4 °F 27.3 °F 29.78 in SE 3.0 mph 5.0 mph 72% 0.00 in 46.00 W/m2
08:09 35.8 °F 27.7 °F 29.78 in SE 4.0 mph 5.0 mph 72% 0.00 in 54.00 W/m2
08:14 36.6 °F 28.4 °F 29.79 in SE 4.0 mph 4.0 mph 72% 0.00 in 176.00 W/m2
08:19 37.3 °F 28.8 °F 29.79 in SE 1.0 mph 4.0 mph 71% 0.00 in 190.00 W/m2
08:24 38.1 °F 29.2 °F 29.79 in SE 3.0 mph 4.0 mph 70% 0.00 in 185.00 W/m2
08:29 38.4 °F 29.1 °F 29.79 in SE 2.0 mph 4.0 mph 69% 0.00 in 248.00 W/m2
08:34 39.0 °F 29.3 °F 29.79 in Calm   3.0 mph 68% 0.00 in 285.00 W/m2
08:39 39.7 °F 29.6 °F 29.79 in Calm   2.0 mph 67% 0.00 in 227.00 W/m2
08:44 40.2 °F 29.7 °F 29.79 in SE 1.0 mph 2.0 mph 66% 0.00 in 156.00 W/m2
08:49 40.7 °F 30.2 °F 29.79 in SE 1.0 mph 3.0 mph 66% 0.00 in 216.00 W/m2
08:54 41.4 °F 30.9 °F 29.80 in Calm   3.0 mph 66% 0.00 in 258.00 W/m2
08:59 42.0 °F 30.7 °F 29.80 in Calm   3.0 mph 64% 0.00 in 264.00 W/m2
09:04 42.4 °F 29.9 °F 29.80 in Calm   2.0 mph 61% 0.00 in 330.00 W/m2
09:09 43.3 °F 30.7 °F 29.80 in Calm   2.0 mph 61% 0.00 in 295.00 W/m2
09:14 44.3 °F 30.9 °F 29.80 in Calm   2.0 mph 59% 0.00 in 355.00 W/m2
09:19 45.2 °F 30.4 °F 29.80 in SE 1.0 mph 2.0 mph 56% 0.00 in 371.00 W/m2
09:24 45.6 °F 29.9 °F 29.80 in SSE 2.0 mph 4.0 mph 54% 0.00 in 236.00 W/m2
09:29 45.8 °F 30.1 °F 29.80 in SSE 2.0 mph 4.0 mph 54% 0.00 in 320.00 W/m2
09:34 46.0 °F 29.3 °F 29.80 in SSE 2.0 mph 3.0 mph 52% 0.00 in 341.00 W/m2
09:39 46.5 °F 30.3 °F 29.80 in Calm   3.0 mph 53% 0.00 in 396.00 W/m2
09:44 47.0 °F 31.2 °F 29.80 in SSE 1.0 mph 2.0 mph 54% 0.00 in 408.00 W/m2
09:49 47.9 °F 32.0 °F 29.80 in SSE 2.0 mph 3.0 mph 54% 0.00 in 476.00 W/m2
09:54 49.0 °F 33.5 °F 29.80 in SSE 2.0 mph 3.0 mph 55% 0.00 in 448.00 W/m2
09:59 49.9 °F 33.4 °F 29.80 in SW 3.0 mph 5.0 mph 53% 0.00 in 478.00 W/m2
10:04 50.4 °F 33.9 °F 29.80 in SSW 2.0 mph 5.0 mph 53% 0.00 in 459.00 W/m2
10:09 51.1 °F 34.1 °F 29.80 in SSE 2.0 mph 5.0 mph 52% 0.00 in 464.00 W/m2
10:14 51.4 °F 34.3 °F 29.80 in SSE 2.0 mph 5.0 mph 52% 0.00 in 504.00 W/m2
10:19 51.8 °F 34.2 °F 29.80 in SSE 2.0 mph 5.0 mph 51% 0.00 in 534.00 W/m2
10:24 52.3 °F 34.2 °F 29.80 in SSW 4.0 mph 5.0 mph 50% 0.00 in 554.00 W/m2
10:29 53.1 °F 34.4 °F 29.80 in SSE 4.0 mph 6.0 mph 49% 0.00 in 577.00 W/m2
10:34 53.6 °F 33.8 °F 29.80 in SSE 2.0 mph 6.0 mph 47% 0.00 in 603.00 W/m2
10:39 53.9 °F 33.6 °F 29.81 in South 1.0 mph 5.0 mph 46% 0.00 in 599.00 W/m2
10:44 54.3 °F 33.9 °F 29.81 in South 2.0 mph 4.0 mph 46% 0.00 in 564.00 W/m2
10:49 54.6 °F 31.9 °F 29.81 in WNW 3.0 mph 5.0 mph 42% 0.00 in 552.00 W/m2
10:54 55.2 °F 32.5 °F 29.81 in WSW 5.0 mph 6.0 mph 42% 0.00 in 582.00 W/m2
10:59 55.3 °F 32.6 °F 29.81 in WSW 1.0 mph 6.0 mph 42% 0.00 in 580.00 W/m2
11:04 55.7 °F 32.3 °F 29.81 in SSE 4.0 mph 5.0 mph 41% 0.00 in 573.00 W/m2
11:09 56.6 °F 33.2 °F 29.81 in South 3.0 mph 5.0 mph 41% 0.00 in 580.00 W/m2
11:14 57.6 °F 33.4 °F 29.81 in SSW 6.0 mph 9.0 mph 40% 0.00 in 603.00 W/m2
11:19 58.4 °F 32.9 °F 29.81 in SE 5.0 mph 9.0 mph 38% 0.00 in 622.00 W/m2
11:24 59.1 °F 33.5 °F 29.80 in South 7.0 mph 14.0 mph 38% 0.00 in 650.00 W/m2
11:29 59.3 °F 31.6 °F 29.81 in SSE 6.0 mph 14.0 mph 35% 0.00 in 722.00 W/m2
11:34 59.4 °F 31.0 °F 29.81 in South 6.0 mph 9.0 mph 34% 0.00 in 758.00 W/m2
11:39 59.5 °F 30.3 °F 29.81 in South 4.0 mph 9.0 mph 33% 0.00 in 763.00 W/m2
11:44 59.7 °F 32.0 °F 29.81 in SE 5.0 mph 7.0 mph 35% 0.00 in 761.00 W/m2
11:49 60.1 °F 29.3 °F 29.81 in SSE 3.0 mph 8.0 mph 31% 0.00 in 773.00 W/m2
11:54 60.1 °F 29.3 °F 29.81 in SSW 7.0 mph 8.0 mph 31% 0.00 in 786.00 W/m2
11:59 60.6 °F 30.6 °F 29.80 in SSW 7.0 mph 10.0 mph 32% 0.00 in 793.00 W/m2
12:04 60.6 °F 29.0 °F 29.80 in SW 6.0 mph 12.0 mph 30% 0.00 in 796.00 W/m2
12:09 61.0 °F 29.3 °F 29.81 in SE 3.0 mph 12.0 mph 30% 0.00 in 789.00 W/m2
12:14 61.6 °F 30.6 °F 29.80 in South 7.0 mph 8.0 mph 31% 0.00 in 817.00 W/m2
12:19 61.3 °F 27.9 °F 29.80 in SW 7.0 mph 8.0 mph 28% 0.00 in 833.00 W/m2
12:24 61.1 °F 27.7 °F 29.80 in SW 4.0 mph 10.0 mph 28% 0.00 in 847.00 W/m2
12:29 61.1 °F 26.8 °F 29.80 in WNW 3.0 mph 10.0 mph 27% 0.00 in 861.00 W/m2
12:34 61.3 °F 27.9 °F 29.80 in SSE 6.0 mph 9.0 mph 28% 0.00 in 882.00 W/m2
12:39 61.8 °F 28.3 °F 29.80 in South 3.0 mph 9.0 mph 28% 0.00 in 881.00 W/m2
12:44 62.0 °F 25.7 °F 29.80 in ENE 2.0 mph 8.0 mph 25% 0.00 in 907.00 W/m2
12:49 62.5 °F 28.0 °F 29.80 in NNE 4.0 mph 6.0 mph 27% 0.00 in 907.00 W/m2
12:54 63.2 °F 27.7 °F 29.80 in North 6.0 mph 8.0 mph 26% 0.00 in 907.00 W/m2
12:59 63.8 °F 28.2 °F 29.80 in SSW 4.0 mph 8.0 mph 26% 0.00 in 798.00 W/m2
13:04 63.8 °F 27.3 °F 29.80 in ESE 10.0 mph 10.0 mph 25% 0.00 in 786.00 W/m2
13:09 63.5 °F 26.0 °F 29.80 in NE 7.0 mph 13.0 mph 24% 0.00 in 622.00 W/m2
13:14 63.2 °F 27.7 °F 29.80 in NE 5.0 mph 13.0 mph 26% 0.00 in 592.00 W/m2
13:19 63.1 °F 28.5 °F 29.80 in SSE 9.0 mph 11.0 mph 27% 0.00 in 666.00 W/m2
13:24 63.3 °F 27.8 °F 29.80 in SSE 6.0 mph 11.0 mph 26% 0.00 in 606.00 W/m2
13:29 63.4 °F 28.8 °F 29.79 in SSE 6.0 mph 11.0 mph 27% 0.00 in 573.00 W/m2
13:34 63.1 °F 26.7 °F 29.80 in SE 1.0 mph 9.0 mph 25% 0.00 in 503.00 W/m2
13:39 62.4 °F 26.1 °F 29.79 in WNW 2.0 mph 8.0 mph 25% 0.00 in 554.00 W/m2
13:44 62.1 °F 27.7 °F 29.79 in West 2.0 mph 6.0 mph 27% 0.00 in 582.00 W/m2
13:49 62.0 °F 25.7 °F 29.79 in Calm   5.0 mph 25% 0.00 in 482.00 W/m2
13:54 62.3 °F 26.9 °F 29.79 in SE 5.0 mph 9.0 mph 26% 0.00 in 457.00 W/m2
13:59 62.1 °F 26.8 °F 29.79 in SE 6.0 mph 10.0 mph 26% 0.00 in 497.00 W/m2
14:04 62.1 °F 27.7 °F 29.79 in SE 3.0 mph 11.0 mph 27% 0.00 in 545.00 W/m2
14:09 62.2 °F 26.9 °F 29.79 in East 2.0 mph 11.0 mph 26% 0.00 in 496.00 W/m2
14:14 62.4 °F 27.0 °F 29.78 in NNW 5.0 mph 8.0 mph 26% 0.00 in 596.00 W/m2
14:19 62.1 °F 27.7 °F 29.78 in WNW 2.0 mph 8.0 mph 27% 0.00 in 568.00 W/m2
14:24 62.0 °F 27.6 °F 29.78 in NNW 3.0 mph 6.0 mph 27% 0.00 in 455.00 W/m2
14:29 61.8 °F 30.0 °F 29.78 in NNE 8.0 mph 9.0 mph 30% 0.00 in 408.00 W/m2
14:34 62.4 °F 27.9 °F 29.78 in NW 3.0 mph 9.0 mph 27% 0.00 in 313.00 W/m2
14:39 62.4 °F 28.8 °F 29.78 in East 2.0 mph 9.0 mph 28% 0.00 in 276.00 W/m2
14:44 62.3 °F 27.9 °F 29.78 in SSE 3.0 mph 7.0 mph 27% 0.00 in 209.00 W/m2
14:49 62.0 °F 26.7 °F 29.78 in SW 4.0 mph 7.0 mph 26% 0.00 in 192.00 W/m2
14:54 61.6 °F 28.1 °F 29.77 in SSW 2.0 mph 7.0 mph 28% 0.00 in 197.00 W/m2
14:59 61.6 °F 26.3 °F 29.78 in SE 2.0 mph 4.0 mph 26% 0.00 in 207.00 W/m2
15:04 61.3 °F 27.9 °F 29.78 in SE 5.0 mph 5.0 mph 28% 0.00 in 234.00 W/m2
15:09 60.8 °F 26.6 °F 29.77 in East 17.0 mph 19.0 mph 27% 0.00 in 322.00 W/m2
15:14 60.7 °F 28.2 °F 29.77 in East 2.0 mph 19.0 mph 29% 0.00 in 373.00 W/m2
15:19 60.9 °F 26.7 °F 29.77 in East 3.0 mph 19.0 mph 27% 0.00 in 355.00 W/m2
15:24 61.4 °F 28.0 °F 29.77 in NNE 5.0 mph 6.0 mph 28% 0.00 in 341.00 W/m2
15:29 61.8 °F 28.3 °F 29.77 in North 6.0 mph 8.0 mph 28% 0.00 in 374.00 W/m2
15:34 62.1 °F 28.6 °F 29.77 in NNW 4.0 mph 8.0 mph 28% 0.00 in 394.00 W/m2
15:39 62.3 °F 29.6 °F 29.77 in NNE 4.0 mph 8.0 mph 29% 0.00 in 390.00 W/m2
15:44 62.6 °F 28.1 °F 29.77 in North 4.0 mph 8.0 mph 27% 0.00 in 332.00 W/m2
15:49 62.9 °F 28.4 °F 29.77 in NNE 6.0 mph 7.0 mph 27% 0.00 in 332.00 W/m2
15:54 63.0 °F 28.5 °F 29.77 in NE 8.0 mph 15.0 mph 27% 0.00 in 318.00 W/m2
15:59 62.3 °F 26.9 °F 29.77 in ENE 8.0 mph 15.0 mph 26% 0.00 in 302.00 W/m2
16:04 62.1 °F 29.4 °F 29.76 in ENE 8.0 mph 15.0 mph 29% 0.00 in 258.00 W/m2
16:10 62.1 °F 28.6 °F 29.77 in ENE 8.0 mph 15.0 mph 28% 0.00 in 292.00 W/m2
16:15 62.1 °F 28.6 °F 29.77 in NNE 14.0 mph 16.0 mph 28% 0.00 in 301.00 W/m2
16:20 62.0 °F 29.3 °F 29.76 in NE 8.0 mph 16.0 mph 29% 0.00 in 288.00 W/m2
16:25 61.9 °F 29.3 °F 29.76 in North 10.0 mph 14.0 mph 29% 0.00 in 271.00 W/m2
16:30 61.9 °F 30.9 °F 29.76 in NNE 11.0 mph 13.0 mph 31% 0.00 in 302.00 W/m2
16:35 62.0 °F 30.2 °F 29.76 in NE 9.0 mph 13.0 mph 30% 0.00 in 304.00 W/m2
16:40 62.0 °F 29.3 °F 29.76 in East 6.0 mph 13.0 mph 29% 0.00 in 283.00 W/m2
16:45 61.7 °F 27.3 °F 29.76 in NE 11.0 mph 17.0 mph 27% 0.00 in 304.00 W/m2
16:50 61.7 °F 29.9 °F 29.76 in ENE 7.0 mph 17.0 mph 30% 0.00 in 348.00 W/m2
16:55 61.9 °F 30.1 °F 29.75 in NE 11.0 mph 17.0 mph 30% 0.00 in 287.00 W/m2
17:00 61.8 °F 29.2 °F 29.75 in NE 14.0 mph 15.0 mph 29% 0.00 in 255.00 W/m2
17:05 61.4 °F 28.8 °F 29.75 in ENE 10.0 mph 16.0 mph 29% 0.00 in 221.00 W/m2
17:09 61.2 °F 29.5 °F 29.75 in NNE 12.0 mph 16.0 mph 30% 0.00 in 213.00 W/m2
17:14 61.0 °F 29.3 °F 29.75 in NE 9.0 mph 17.0 mph 30% 0.00 in 220.00 W/m2
17:19 60.8 °F 29.1 °F 29.76 in NNE 12.0 mph 17.0 mph 30% 0.00 in 188.00 W/m2
17:25 60.7 °F 29.1 °F 29.76 in NE 7.0 mph 16.0 mph 30% 0.00 in 146.00 W/m2
17:30 60.6 °F 29.0 °F 29.75 in ENE 13.0 mph 13.0 mph 30% 0.00 in 125.00 W/m2
17:34 60.3 °F 28.7 °F 29.76 in NE 8.0 mph 14.0 mph 30% 0.00 in 118.00 W/m2
17:40 60.1 °F 29.3 °F 29.76 in NE 10.0 mph 14.0 mph 31% 0.00 in 104.00 W/m2
17:44 59.9 °F 28.4 °F 29.76 in ESE 7.0 mph 17.0 mph 30% 0.00 in 76.00 W/m2
17:49 59.4 °F 27.1 °F 29.76 in ESE 4.0 mph 17.0 mph 29% 0.00 in 76.00 W/m2
17:55 59.4 °F 28.7 °F 29.76 in East 11.0 mph 12.0 mph 31% 0.00 in 62.00 W/m2
18:00 59.0 °F 29.2 °F 29.77 in ESE 14.0 mph 20.0 mph 32% 0.00 in 46.00 W/m2
18:05 58.6 °F 29.6 °F 29.77 in SE 12.0 mph 26.0 mph 33% 0.00 in 44.00 W/m2
18:10 58.3 °F 29.3 °F 29.77 in SW 5.0 mph 26.0 mph 33% 0.00 in 46.00 W/m2
18:15 57.8 °F 30.3 °F 29.77 in WNW 6.0 mph 18.0 mph 35% 0.00 in 54.00 W/m2
18:20 57.1 °F 32.4 °F 29.78 in WNW 2.0 mph 18.0 mph 39% 0.00 in 54.00 W/m2
18:25 56.9 °F 31.5 °F 29.78 in SSE 9.0 mph 12.0 mph 38% 0.00 in 42.00 W/m2
18:30 56.9 °F 31.5 °F 29.78 in ESE 11.0 mph 18.0 mph 38% 0.00 in 37.00 W/m2
18:35 56.7 °F 32.6 °F 29.79 in ESE 9.0 mph 19.0 mph 40% 0.00 in 39.00 W/m2
18:40 56.5 °F 32.4 °F 29.79 in East 5.0 mph 19.0 mph 40% 0.00 in 33.00 W/m2
18:45 56.5 °F 31.8 °F 29.79 in NE 4.0 mph 18.0 mph 39% 0.00 in 35.00 W/m2
18:50 56.6 °F 31.9 °F 29.78 in Calm   18.0 mph 39% 0.00 in 28.00 W/m2
18:55 56.6 °F 31.9 °F 29.79 in SE 8.0 mph 17.0 mph 39% 0.00 in 26.00 W/m2
19:00 56.4 °F 33.0 °F 29.79 in SSE 9.0 mph 17.0 mph 41% 0.00 in 25.00 W/m2
19:04 55.5 °F 34.5 °F 29.79 in SSE 10.0 mph 22.0 mph 45% 0.00 in 25.00 W/m2
19:09 55.0 °F 34.0 °F 29.79 in ESE 14.0 mph 22.0 mph 45% 0.00 in 26.00 W/m2
19:14 55.1 °F 33.6 °F 29.79 in SE 11.0 mph 14.0 mph 44% 0.00 in 28.00 W/m2
19:20 55.0 °F 34.0 °F 29.79 in ENE 11.0 mph 23.0 mph 45% 0.00 in 19.00 W/m2
19:24 54.6 °F 35.3 °F 29.79 in NE 10.0 mph 23.0 mph 48% 0.00 in 18.00 W/m2
19:30 54.2 °F 34.9 °F 29.79 in ENE 4.0 mph 20.0 mph 48% 0.00 in 16.00 W/m2
19:35 54.1 °F 35.9 °F 29.79 in East 5.0 mph 13.0 mph 50% 0.00 in 14.00 W/m2
19:39 53.9 °F 35.7 °F 29.79 in SE 4.0 mph 7.0 mph 50% 0.00 in 11.00 W/m2
19:44 53.8 °F 35.1 °F 29.79 in East 2.0 mph 14.0 mph 49% 0.00 in 9.00 W/m2
19:49 53.8 °F 35.6 °F 29.80 in SE 3.0 mph 14.0 mph 50% 0.00 in 7.00 W/m2
19:54 53.4 °F 36.7 °F 29.80 in ESE 4.0 mph 8.0 mph 53% 0.00 in 5.00 W/m2
20:00 52.9 °F 37.2 °F 29.80 in SE 4.0 mph 8.0 mph 55% 0.00 in 0.00 W/m2
20:05 52.4 °F 37.2 °F 29.80 in SE 6.0 mph 7.0 mph 56% 0.00 in 0.00 W/m2
20:10 52.0 °F 38.1 °F 29.80 in ENE 4.0 mph 8.0 mph 59% 0.00 in 0.00 W/m2
20:15 51.6 °F 37.7 °F 29.80 in East 6.0 mph 9.0 mph 59% 0.00 in 0.00 W/m2
20:20 51.4 °F 38.0 °F 29.80 in ENE 4.0 mph 9.0 mph 60% 0.00 in 0.00 W/m2
20:25 51.4 °F 38.4 °F 29.80 in ENE 4.0 mph 9.0 mph 61% 0.00 in 0.00 W/m2
20:30 51.0 °F 38.8 °F 29.80 in ENE 5.0 mph 9.0 mph 63% 0.00 in 0.00 W/m2
20:35 50.5 °F 38.8 °F 29.81 in ENE 5.0 mph 8.0 mph 64% 0.00 in 0.00 W/m2
20:40 50.3 °F 39.0 °F 29.81 in East 5.0 mph 8.0 mph 65% 0.00 in 0.00 W/m2
20:45 50.2 °F 39.3 °F 29.82 in ENE 4.0 mph 8.0 mph 66% 0.00 in 0.00 W/m2
20:50 49.8 °F 39.3 °F 29.82 in ENE 4.0 mph 8.0 mph 67% 0.01 in 0.00 W/m2
20:55 49.6 °F 39.8 °F 29.82 in ENE 4.0 mph 8.0 mph 69% 0.01 in 0.00 W/m2
21:00 49.1 °F 39.7 °F 29.82 in NE 5.0 mph 7.0 mph 70% 0.01 in 0.00 W/m2
21:05 48.6 °F 40.0 °F 29.82 in ENE 5.0 mph 9.0 mph 72% 0.01 in 0.00 W/m2
21:10 48.2 °F 39.9 °F 29.82 in ENE 4.0 mph 10.0 mph 73% 0.01 in 0.00 W/m2
21:14 47.9 °F 40.4 °F 29.82 in ENE 4.0 mph 10.0 mph 75% 0.01 in 0.00 W/m2
21:19 47.7 °F 40.5 °F 29.83 in ENE 3.0 mph 7.0 mph 76% 0.01 in 0.00 W/m2
21:25 47.6 °F 40.4 °F 29.83 in ENE 4.0 mph 8.0 mph 76% 0.01 in 0.00 W/m2
21:29 47.6 °F 40.4 °F 29.83 in East 9.0 mph 11.0 mph 76% 0.01 in 0.00 W/m2
21:35 47.9 °F 40.0 °F 29.84 in East 6.0 mph 11.0 mph 74% 0.02 in 0.00 W/m2
21:39 47.9 °F 40.0 °F 29.84 in East 6.0 mph 10.0 mph 74% 0.02 in 0.00 W/m2
21:44 47.8 °F 40.3 °F 29.84 in ENE 3.0 mph 9.0 mph 75% 0.02 in 0.00 W/m2
21:49 47.5 °F 40.6 °F 29.84 in ENE 3.0 mph 7.0 mph 77% 0.02 in 0.00 W/m2
21:54 47.2 °F 40.7 °F 29.84 in East 1.0 mph 5.0 mph 78% 0.02 in 0.00 W/m2
21:59 46.9 °F 41.1 °F 29.84 in NE 3.0 mph 5.0 mph 80% 0.03 in 0.00 W/m2
22:05 46.5 °F 40.7 °F 29.84 in NE 5.0 mph 6.0 mph 80% 0.03 in 0.00 W/m2
22:10 46.2 °F 40.7 °F 29.84 in NE 4.0 mph 8.0 mph 81% 0.03 in 0.00 W/m2
22:15 46.0 °F 40.8 °F 29.84 in NE 6.0 mph 8.0 mph 82% 0.04 in 0.00 W/m2
22:20 45.8 °F 40.9 °F 29.84 in NE 7.0 mph 9.0 mph 83% 0.04 in 0.00 W/m2
22:25 45.6 °F 41.0 °F 29.83 in ENE 7.0 mph 10.0 mph 84% 0.04 in 0.00 W/m2
22:30 45.4 °F 40.8 °F 29.83 in ENE 10.0 mph 10.0 mph 84% 0.05 in 0.00 W/m2
22:35 45.2 °F 41.0 °F 29.84 in ENE 7.0 mph 10.0 mph 85% 0.04 in 0.00 W/m2
22:40 45.0 °F 40.8 °F 29.84 in ENE 5.0 mph 10.0 mph 85% 0.05 in 0.00 W/m2
22:45 44.9 °F 41.0 °F 29.83 in ENE 7.0 mph 10.0 mph 86% 0.05 in 0.00 W/m2
22:50 44.8 °F 41.2 °F 29.83 in ENE 7.0 mph 10.0 mph 87% 0.05 in 0.00 W/m2
22:55 44.7 °F 41.1 °F 29.83 in ENE 7.0 mph 10.0 mph 87% 0.05 in 0.00 W/m2
23:00 44.6 °F 41.0 °F 29.83 in NE 4.0 mph 10.0 mph 87% 0.04 in 0.00 W/m2
23:04 44.5 °F 41.2 °F 29.83 in ENE 4.0 mph 10.0 mph 88% 0.04 in 0.00 W/m2
23:09 44.4 °F 41.1 °F 29.83 in ENE 8.0 mph 11.0 mph 88% 0.04 in 0.00 W/m2
23:15 44.3 °F 41.0 °F 29.84 in NE 6.0 mph 11.0 mph 88% 0.04 in 0.00 W/m2
23:19 44.3 °F 41.0 °F 29.84 in ENE 7.0 mph 13.0 mph 88% 0.04 in 0.00 W/m2
23:25 44.3 °F 41.0 °F 29.83 in NE 10.0 mph 13.0 mph 88% 0.04 in 0.00 W/m2
23:29 44.2 °F 40.9 °F 29.84 in NE 12.0 mph 14.0 mph 88% 0.04 in 0.00 W/m2
23:35 44.2 °F 40.9 °F 29.84 in NE 7.0 mph 14.0 mph 88% 0.05 in 0.00 W/m2
23:39 44.1 °F 40.8 °F 29.84 in ENE 12.0 mph 13.0 mph 88% 0.05 in 0.00 W/m2
23:44 44.0 °F 41.0 °F 29.84 in NE 9.0 mph 13.0 mph 89% 0.06 in 0.00 W/m2
23:49 43.9 °F 40.9 °F 29.84 in NE 8.0 mph 13.0 mph 89% 0.05 in 0.00 W/m2
23:54 43.8 °F 40.8 °F 29.84 in NE 10.0 mph 16.0 mph 89% 0.05 in 0.00 W/m2
23:59 43.8 °F 40.8 °F 29.84 in ENE 10.0 mph 16.0 mph 89% 0.05 in 0.00 W/m2
Bismarck, North Dakota, USA
Compliments of Weather Underground - 4 mb